軌道要素
Epoch 2023 Sept. 13.0 TT = JDT 2460200.5
T 2024 May 19.11448 TT Rudenko
q 1.0548231 (2000.0) P Q
n 0.18134701 Peri. 356.32652 +0.19819847 -0.95917715
a 3.0912143 Node 82.16409 +0.90439109 +0.09961312
e 0.6587674 Incl. 11.74962 +0.37788110 +0.26468174
P 5.43
>From 6521 observations 2008 Jan. 1-2023 Dec. 10, mean residual 0".8.
Nongravitational parameters A1 = +0.38, A2 = -0.1547.
|